DW0125 Weather Reports


time (UTC)temp
C
wind
direction
speed
KPH
gust
KPH
rain 1hr
cm
rain 24hr
cm
rain mn
cm
humidity
%
barometer
mb
20190421201507 16 94 4.8 11.3 0.00 0.00 0.00 40 1015.0
20190421201206 17 97 1.6 9.7 0.00 0.00 0.00 40 1015.0
20190421201006 17 91 3.2 8.0 0.00 0.00 0.00 39 1015.1
20190421200506 17 99 3.2 3.2 0.00 0.00 0.00 39 1015.1
20190421200206 17 99 4.8 4.8 0.00 0.00 0.00 39 1015.1
20190421200006 17 92 4.8 9.7 0.00 0.00 0.00 39 1015.1
20190421195506 17 95 3.2 9.7 0.00 0.00 0.00 38 1015.2
20190421195206 17 94 4.8 4.8 0.00 0.00 0.00 37 1015.1
20190421195006 17 113 4.8 12.9 0.00 0.00 0.00 37 1015.2
20190421194506 17 116 4.8 12.9 0.00 0.00 0.00 37 1015.1
20190421194206 17 95 4.8 11.3 0.00 0.00 0.00 37 1015.1
20190421194006 17 92 4.8 14.5 0.00 0.00 0.00 37 1015.1
20190421193506 18 107 8.0 16.1 0.00 0.00 0.00 37 1015.1
20190421193206 18 94 6.4 9.7 0.00 0.00 0.00 37 1015.1
20190421193006 18 100 4.8 12.9 0.00 0.00 0.00 38 1015.1
20190421192206 18 92 4.8 8.0 0.00 0.00 0.00 37 1015.1
20190421192007 18 94 4.8 12.9 0.00 0.00 0.00 36 1015.1
20190421191528 18 106 9.7 19.3 0.00 0.00 0.00 36 1015.1
20190421191206 18 96 4.8 12.9 0.00 0.00 0.00 37 1015.1
20190421191005 18 94 6.4 19.3 0.00 0.00 0.00 36 1015.0
20190421190506 18 125 8.0 14.5 0.00 0.00 0.00 36 1015.0
20190421190206 18 100 4.8 12.9 0.00 0.00 0.00 36 1015.1
20190421190006 19 83 4.8 11.3 0.00 0.00 0.00 36 1015.1
20190421185506 19 98 8.0 14.5 0.00 0.00 0.00 35 1015.0
20190421185206 19 95 6.4 16.1 0.00 0.00 0.00 35 1015.1
20190421185006 19 130 8.0 11.3 0.00 0.00 0.00 35 1015.0
20190421184508 19 112 8.0 12.9 0.00 0.00 0.00 34 1015.1
20190421184206 20 103 8.0 12.9 0.00 0.00 0.00 34 1015.1
20190421184006 20 103 11.3 19.3 0.00 0.00 0.00 34 1015.1
20190421183507 20 83 8.0 16.1 0.00 0.00 0.00 34 1015.1
20190421183206 20 100 6.4 12.9 0.00 0.00 0.00 34 1015.0
20190421183006 20 88 8.0 19.3 0.00 0.00 0.00 34 1015.0
20190421182206 20 83 9.7 16.1 0.00 0.00 0.00 34 1014.9
20190421182006 20 77 11.3 22.5 0.00 0.00 0.00 34 1014.9
20190421181506 20 95 8.0 19.3 0.00 0.00 0.00 34 1014.9
20190421181205 20 80 9.7 14.5 0.00 0.00 0.00 33 1015.0
20190421181006 20 103 9.7 24.1 0.00 0.00 0.00 33 1015.0
20190421180506 21 104 8.0 19.3 0.00 0.00 0.00 34 1014.9
20190421180205 21 96 8.0 16.1 0.00 0.00 0.00 33 1014.9
20190421180006 21 124 9.7 20.9 0.00 0.00 0.00 33 1014.9
20190421175506 21 94 6.4 14.5 0.00 0.00 0.00 33 1014.9
20190421175206 21 96 8.0 12.9 0.00 0.00 0.00 33 1014.9
20190421175006 21 92 8.0 19.3 0.00 0.00 0.00 33 1015.0
20190421174507 21 86 6.4 19.3 0.00 0.00 0.00 33 1015.0
20190421174206 21 63 6.4 19.3 0.00 0.00 0.00 33 1015.0
20190421174006 21 82 6.4 19.3 0.00 0.00 0.00 33 1015.0
20190421173506 21 73 8.0 19.3 0.00 0.00 0.00 33 1015.0
20190421173206 22 75 11.3 16.1 0.00 0.00 0.00 33 1015.1
20190421173006 22 82 9.7 19.3 0.00 0.00 0.00 32 1015.1
20190421172206 22 77 11.3 19.3 0.00 0.00 0.00 31 1015.1
20190421172008 22 89 11.3 19.3 0.00 0.00 0.00 31 1015.1
20190421171507 22 87 9.7 19.3 0.00 0.00 0.00 30 1015.2
20190421171206 22 81 9.7 16.1 0.00 0.00 0.00 30 1015.2
20190421171006 22 85 6.4 20.9 0.00 0.00 0.00 30 1015.2
20190421170506 23 82 9.7 16.1 0.00 0.00 0.00 30 1015.3
20190421170205 23 83 4.8 16.1 0.00 0.00 0.00 30 1015.3
20190421170006 23 97 4.8 9.7 0.00 0.00 0.00 30 1015.3
20190421165506 23 93 6.4 11.3 0.00 0.00 0.00 30 1015.4
20190421165206 23 89 9.7 12.9 0.00 0.00 0.00 29 1015.4
20190421165006 23 103 8.0 19.3 0.00 0.00 0.00 30 1015.4
20190421164506 23 107 4.8 14.5 0.00 0.00 0.00 29 1015.4
20190421164206 23 107 9.7 19.3 0.00 0.00 0.00 30 1015.5
20190421164006 23 109 9.7 19.3 0.00 0.00 0.00 29 1015.5
20190421163506 23 103 8.0 12.9 0.00 0.00 0.00 29 1015.5
20190421163205 23 103 4.8 11.3 0.00 0.00 0.00 29 1015.6
20190421163006 23 111 4.8 11.3 0.00 0.00 0.00 30 1015.5
20190421162206 23 75 6.4 9.7 0.00 0.00 0.00 30 1015.6
20190421162005 23 126 8.0 19.3 0.00 0.00 0.00 30 1015.6
20190421161507 24 167 8.0 12.9 0.00 0.00 0.00 30 1015.7
20190421161206 24 119 9.7 19.3 0.00 0.00 0.00 29 1015.8
20190421161005 24 107 4.8 14.5 0.00 0.00 0.00 29 1015.8
20190421160506 24 157 3.2 11.3 0.00 0.00 0.00 29 1015.9
20190421160206 24 147 3.2 4.8 0.00 0.00 0.00 28 1015.9
20190421160006 24 70 1.6 4.8 0.00 0.00 0.00 27 1015.9
20190421155506 24 73 4.8 11.3 0.00 0.00 0.00 27 1016.1
20190421155206 24 99 3.2 9.7 0.00 0.00 0.00 28 1016.1
20190421155005 24 24 8.0 14.5 0.00 0.00 0.00 28 1016.1
20190421154505 24 114 1.6 4.8 0.00 0.00 0.00 26 1016.2
20190421154206 24 53 3.2 8.0 0.00 0.00 0.00 27 1016.3
20190421154006 25 59 4.8 8.0 0.00 0.00 0.00 28 1016.3
20190421153505 25 346 3.2 9.7 0.00 0.00 0.00 26 1016.3
20190421153206 25 82 8.0 11.3 0.00 0.00 0.00 26 1016.4
20190421153006 25 100 8.0 11.3 0.00 0.00 0.00 28 1016.5
20190421152205 25 89 4.8 9.7 0.00 0.00 0.00 28 1016.5
20190421152006 25 80 3.2 8.0 0.00 0.00 0.00 27 1016.6
20190421151506 25 68 3.2 9.7 0.00 0.00 0.00 27 1016.6
20190421151205 25 120 8.0 12.9 0.00 0.00 0.00 27 1016.6
20190421151006 25 190 4.8 12.9 0.00 0.00 0.00 28 1016.7
20190421150505 25 152 6.4 14.5 0.00 0.00 0.00 28 1016.8
20190421150205 25 109 4.8 9.7 0.00 0.00 0.00 28 1016.8
20190421150006 25 88 4.8 12.9 0.00 0.00 0.00 28 1016.8
20190421145506 25 190 4.8 8.0 0.00 0.00 0.00 27 1016.9
20190421145206 25 73 8.0 19.3 0.00 0.00 0.00 27 1017.0
20190421145006 25 116 8.0 20.9 0.00 0.00 0.00 28 1017.0
20190421144505 25 175 4.8 12.9 0.00 0.00 0.00 28 1017.0
20190421144206 25 101 6.4 19.3 0.00 0.00 0.00 27 1017.1
20190421144006 25 84 3.2 11.3 0.00 0.00 0.00 27 1017.0
20190421143506 25 66 6.4 11.3 0.00 0.00 0.00 27 1017.2
20190421143205 25 79 9.7 19.3 0.00 0.00 0.00 27 1017.2
20190421143006 25 87 8.0 19.3 0.00 0.00 0.00 27 1017.2
20190421142206 25 109 9.7 14.5 0.00 0.00 0.00 26 1017.4
20190421142005 25 110 9.7 19.3 0.00 0.00 0.00 25 1017.4
20190421141507 25 119 3.2 9.7 0.00 0.00 0.00 25 1017.4
20190421141206 25 45 3.2 4.8 0.00 0.00 0.00 25 1017.5
20190421141006 25 59 3.2 9.7 0.00 0.00 0.00 25 1017.5
20190421140506 25 78 4.8 12.9 0.00 0.00 0.00 24 1017.7
20190421140205 25 71 8.0 14.5 0.00 0.00 0.00 25 1017.7
20190421140006 25 105 6.4 14.5 0.00 0.00 0.00 25 1017.8
20190421135505 25 182 8.0 11.3 0.00 0.00 0.00 25 1017.8
20190421135206 25 85 8.0 14.5 0.00 0.00 0.00 25 1017.8
20190421135005 25 107 9.7 19.3 0.00 0.00 0.00 24 1017.9
20190421134505 25 165 9.7 16.1 0.00 0.00 0.00 25 1017.9
20190421134205 25 117 3.2 9.7 0.00 0.00 0.00 25 1018.0
20190421134006 24 118 3.2 8.0 0.00 0.00 0.00 26 1018.1
20190421133506 24 87 4.8 11.3 0.00 0.00 0.00 26 1018.1
20190421133205 24 103 4.8 9.7 0.00 0.00 0.00 25 1018.2
20190421133006 24 104 4.8 11.3 0.00 0.00 0.00 25 1018.2
20190421132206 24 188 6.4 9.7 0.00 0.00 0.00 25 1018.4
20190421132005 24 151 8.0 16.1 0.00 0.00 0.00 25 1018.4
20190421131506 24 145 8.0 16.1 0.00 0.00 0.00 25 1018.5
20190421131206 24 135 4.8 8.0 0.00 0.00 0.00 25 1018.5
20190421131006 24 101 9.7 19.3 0.00 0.00 0.00 25 1018.5
20190421130506 24 156 9.7 14.5 0.00 0.00 0.00 25 1018.6
20190421130205 24 169 6.4 19.3 0.00 0.00 0.00 25 1018.6
20190421130005 24 76 4.8 12.9 0.00 0.00 0.00 25 1018.7
20190421125505 24 155 9.7 14.5 0.00 0.00 0.00 25 1018.8
20190421125206 24 151 11.3 19.3 0.00 0.00 0.00 26 1018.8
20190421125006 24 135 8.0 16.1 0.00 0.00 0.00 28 1018.8
20190421124506 24 161 3.2 8.0 0.00 0.00 0.00 27 1018.9
20190421124205 24 30 6.4 9.7 0.00 0.00 0.00 28 1018.9
20190421124006 24 149 8.0 16.1 0.00 0.00 0.00 27 1019.0
20190421123505 24 98 4.8 12.9 0.00 0.00 0.00 27 1019.0
20190421123205 24 157 8.0 11.3 0.00 0.00 0.00 27 1019.0
20190421123006 24 169 4.8 11.3 0.00 0.00 0.00 30 1019.0
20190421122205 23 130 3.2 8.0 0.00 0.00 0.00 26 1019.2
20190421122005 23 183 1.6 12.9 0.00 0.00 0.00 26 1019.2
20190421121506 23 151 8.0 19.3 0.00 0.00 0.00 26 1019.3
20190421121206 23 102 4.8 11.3 0.00 0.00 0.00 30 1019.3
20190421121006 23 143 9.7 19.3 0.00 0.00 0.00 28 1019.4
20190421120505 23 115 9.7 19.3 0.00 0.00 0.00 28 1019.4
20190421120206 23 0 1.6 4.8 0.00 0.00 0.00 29 1019.4
20190421120006 23 3 4.8 16.1 0.00 0.00 0.00 27 1019.5
20190421115506 23 88 6.4 12.9 0.00 0.00 0.00 28 1019.6
20190421115205 23 134 4.8 9.7 0.00 0.00 0.00 30 1019.6
20190421115005 23 72 3.2 12.9 0.00 0.00 0.00 30 1019.6
20190421114506 23 359 1.6 4.8 0.00 0.00 0.00 29 1019.7
20190421114206 23 338 3.2 4.8 0.00 0.00 0.00 31 1019.7
20190421114006 23 344 4.8 9.7 0.00 0.00 0.00 30 1019.8
20190421113506 23 117 4.8 11.3 0.00 0.00 0.00 31 1019.8
20190421113206 23 89 3.2 12.9 0.00 0.00 0.00 30 1019.9
20190421113005 23 118 4.8 12.9 0.00 0.00 0.00 29 1020.0
20190421112205 22 55 3.2 4.8 0.00 0.00 0.00 30 1020.1
20190421112007 22 33 3.2 9.7 0.00 0.00 0.00 31 1020.1
20190421111506 22 115 4.8 11.3 0.00 0.00 0.00 33 1020.2
20190421111205 22 38 4.8 12.9 0.00 0.00 0.00 31 1020.2
20190421111007 22 70 4.8 12.9 0.00 0.00 0.00 30 1020.3
20190421110506 22 359 4.8 4.8 0.00 0.00 0.00 36 1020.3
20190421110206 22 8 4.8 11.3 0.00 0.00 0.00 37 1020.3
20190421110005 22 12 1.6 9.7 0.00 0.00 0.00 35 1020.4
20190421105505 22 32 6.4 9.7 0.00 0.00 0.00 37 1020.5
20190421105206 22 23 3.2 9.7 0.00 0.00 0.00 35 1020.5
20190421105006 22 9 3.2 8.0 0.00 0.00 0.00 36 1020.5
20190421104505 21 356 4.8 4.8 0.00 0.00 0.00 35 1020.7
20190421104205 21 42 3.2 9.7 0.00 0.00 0.00 38 1020.7
20190421104005 21 343 3.2 4.8 0.00 0.00 0.00 40 1020.7
20190421103505 21 22 6.4 11.3 0.00 0.00 0.00 36 1020.8
20190421103205 21 64 3.2 4.8 0.00 0.00 0.00 37 1020.9
20190421103006 21 45 1.6 9.7 0.00 0.00 0.00 39 1020.9
20190421102205 21 352 3.2 8.0 0.00 0.00 0.00 42 1021.0
20190421102005 21 355 4.8 12.9 0.00 0.00 0.00 41 1021.0
20190421101506 21 19 1.6 4.8 0.00 0.00 0.00 42 1021.0
20190421101205 21 19 3.2 8.0 0.00 0.00 0.00 42 1021.1
20190421101005 21 16 1.6 4.8 0.00 0.00 0.00 41 1021.1
20190421100506 20 22 1.6 4.8 0.00 0.00 0.00 44 1021.2
20190421100206 20 356 1.6 4.8 0.00 0.00 0.00 45 1021.2
20190421100008 20 2 1.6 4.8 0.00 0.00 0.00 47 1021.3
20190421095505 20 15 1.6 4.8 0.00 0.00 0.00 45 1021.3
20190421095206 20 349 3.2 8.0 0.00 0.00 0.00 45 1021.4
20190421095006 20 25 3.2 4.8 0.00 0.00 0.00 45 1021.4
20190421094505 20 358 4.8 8.0 0.00 0.00 0.00 47 1021.5
20190421094205 19 353 3.2 8.0 0.00 0.00 0.00 46 1021.6
20190421094005 19 353 4.8 8.0 0.00 0.00 0.00 47 1021.6
20190421093505 19 3 4.8 9.7 0.00 0.00 0.00 48 1021.6
20190421093206 18 354 4.8 9.7 0.00 0.00 0.00 49 1021.7
20190421093005 18 332 3.2 9.7 0.00 0.00 0.00 48 1021.7
20190421092205 18 358 4.8 11.3 0.00 0.00 0.00 48 1021.9
20190421092007 18 358 6.4 9.7 0.00 0.00 0.00 48 1021.9
20190421091205 18 7 1.6 8.0 0.00 0.00 0.00 48 1022.0
20190421091005 18 0 1.6 11.3 0.00 0.00 0.00 49 1022.0
20190421090505 18 349 4.8 11.3 0.00 0.00 0.00 51 1022.1
20190421090207 17 344 3.2 4.8 0.00 0.00 0.00 52 1022.1
20190421090007 17 347 3.2 4.8 0.00 0.00 0.00 53 1022.2
20190421085505 17 350 3.2 4.8 0.00 0.00 0.00 53 1022.2
20190421085205 17 22 3.2 4.8 0.00 0.00 0.00 53 1022.3
20190421085005 17 15 1.6 4.8 0.00 0.00 0.00 54 1022.3
20190421084505 17 0 3.2 4.8 0.00 0.00 0.00 54 1022.4
20190421084205 17 5 3.2 4.8 0.00 0.00 0.00 53 1022.4
20190421084006 17 3 6.4 9.7 0.00 0.00 0.00 53 1022.4
20190421083505 17 23 1.6 4.8 0.00 0.00 0.00 53 1022.5
20190421083205 17 23 3.2 4.8 0.00 0.00 0.00 54 1022.5
20190421083005 17 23 3.2 4.8 0.00 0.00 0.00 54 1022.6
20190421082205 16 24 1.6 4.8 0.00 0.00 0.00 53 1022.5
20190421082005 16 24 3.2 12.9 0.00 0.00 0.00 54 1022.5
20190421081506 16 355 3.2 8.0 0.00 0.00 0.00 53 1022.6
20190421081205 16 30 3.2 4.8 0.00 0.00 0.00 53 1022.7
20190421081006 16 15 4.8 9.7 0.00 0.00 0.00 54 1022.7
20190421080505 16 23 1.6 4.8 0.00 0.00 0.00 55 1022.8
20190421080205 16 41 3.2 4.8 0.00 0.00 0.00 54 1022.8
20190421080005 15 52 3.2 4.8 0.00 0.00 0.00 54 1022.9
20190421075505 15 64 3.2 4.8 0.00 0.00 0.00 55 1022.9
20190421075205 15 78 3.2 4.8 0.00 0.00 0.00 55 1022.9
20190421075005 15 64 3.2 4.8 0.00 0.00 0.00 56 1022.9
20190421074505 15 68 4.8 4.8 0.00 0.00 0.00 56 1022.9
20190421074205 15 43 0.0 0.0 0.00 0.00 0.00 57 1023.0
20190421073505 14 30 4.8 8.0 0.00 0.00 0.00 56 1023.0
20190421073205 14 35 4.8 8.0 0.00 0.00 0.00 57 1023.0
20190421073005 14 26 4.8 8.0 0.00 0.00 0.00 57 1023.0
20190421072005 13 58 6.4 11.3 0.00 0.00 0.00 58 1023.0
20190421071506 13 57 1.6 4.8 0.00 0.00 0.00 59 1023.0
20190421071205 13 35 3.2 4.8 0.00 0.00 0.00 60 1023.1
20190421071005 13 35 3.2 4.8 0.00 0.00 0.00 60 1023.1
20190421070505 13 9 0.0 3.2 0.00 0.00 0.00 64 1023.1
20190421070205 12 33 0.0 4.8 0.00 0.00 0.00 63 1023.1
20190421070005 12 9 1.6 4.8 0.00 0.00 0.00 64 1023.2
20190421065505 12 54 0.0 1.6 0.00 0.00 0.00 68 1023.2
20190421065205 12 54 0.0 0.0 0.00 0.00 0.00 69 1023.3
20190421065005 11 54 0.0 0.0 0.00 0.00 0.00 71 1023.3
20190421064505 11 54 0.0 0.0 0.00 0.00 0.00 72 1023.3
20190421064205 11 54 0.0 0.0 0.00 0.00 0.00 74 1023.3
20190421064005 10 54 0.0 0.0 0.00 0.00 0.00 74 1023.4
20190421063505 10 54 0.0 0.0 0.00 0.00 0.00 76 1023.4
20190421063205 9 54 0.0 0.0 0.00 0.00 0.00 79 1023.4
20190421063007 9 54 0.0 0.0 0.00 0.00 0.00 79 1023.4
20190421062204 8 54 0.0 0.0 0.00 0.00 0.00 82 1023.5
20190421062005 8 54 0.0 1.6 0.00 0.00 0.00 83 1023.5
20190421061505 7 54 0.0 1.6 0.00 0.00 0.00 85 1023.5
20190421061205 7 54 0.0 0.0 0.00 0.00 0.00 87 1023.5
20190421061005 7 54 0.0 3.2 0.00 0.00 0.00 87 1023.5
20190421060505 6 65 0.0 0.0 0.00 0.00 0.00 89 1023.6
20190421060205 6 65 0.0 0.0 0.00 0.00 0.00 89 1023.6
20190421060005 6 65 0.0 0.0 0.00 0.00 0.00 89 1023.5
20190421055505 6 65 0.0 0.0 0.00 0.00 0.00 89 1023.6
20190421055205 6 65 0.0 0.0 0.00 0.00 0.00 89 1023.6
20190421055005 6 65 0.0 0.0 0.00 0.00 0.00 89 1023.7
20190421054505 5 65 0.0 0.0 0.00 0.00 0.00 89 1023.7
20190421054205 5 65 0.0 0.0 0.00 0.00 0.00 89 1023.7
20190421054005 5 65 0.0 0.0 0.00 0.00 0.00 89 1023.7
20190421053505 5 65 0.0 0.0 0.00 0.00 0.00 87 1023.8
20190421053205 5 65 0.0 0.0 0.00 0.00 0.00 87 1023.8
20190421053005 5 65 0.0 0.0 0.00 0.00 0.00 86 1023.7
20190421052205 5 65 0.0 0.0 0.00 0.00 0.00 86 1023.7
20190421052006 5 65 0.0 0.0 0.00 0.00 0.00 86 1023.7
20190421051506 5 65 0.0 0.0 0.00 0.00 0.00 86 1023.7
20190421051205 5 65 0.0 0.0 0.00 0.00 0.00 86 1023.7
20190421051005 5 65 0.0 0.0 0.00 0.00 0.00 86 1023.7
20190421050505 5 65 0.0 0.0 0.00 0.00 0.00 86 1023.8
20190421050205 5 65 0.0 0.0 0.00 0.00 0.00 85 1023.7
20190421050005 5 65 0.0 0.0 0.00 0.00 0.00 85 1023.7
20190421045505 5 65 0.0 0.0 0.00 0.00 0.00 85 1023.7
20190421045205 5 65 0.0 0.0 0.00 0.00 0.00 85 1023.7
20190421045005 5 65 0.0 0.0 0.00 0.00 0.00 85 1023.7
20190421044505 5 65 0.0 0.0 0.00 0.00 0.00 84 1023.7
20190421044204 5 65 0.0 0.0 0.00 0.00 0.00 84 1023.7
20190421044005 5 65 0.0 0.0 0.00 0.00 0.00 84 1023.7
20190421043505 6 65 0.0 0.0 0.00 0.00 0.00 85 1023.7
20190421043204 6 65 0.0 0.0 0.00 0.00 0.00 85 1023.7
20190421043005 6 65 0.0 0.0 0.00 0.00 0.00 84 1023.8
20190421042204 6 65 0.0 0.0 0.00 0.00 0.00 84 1023.9
20190421042005 6 65 0.0 0.0 0.00 0.00 0.00 84 1023.9
20190421041506 6 65 0.0 0.0 0.00 0.00 0.00 84 1023.9
20190421041204 6 65 0.0 0.0 0.00 0.00 0.00 84 1024.0
20190421041005 6 65 0.0 0.0 0.00 0.00 0.00 84 1024.0
20190421040505 6 65 0.0 0.0 0.00 0.00 0.00 84 1024.0
20190421040205 6 65 0.0 0.0 0.00 0.00 0.00 83 1024.2
20190421040005 6 65 0.0 0.0 0.00 0.00 0.00 82 1024.1
20190421035504 6 65 0.0 0.0 0.00 0.00 0.00 82 1024.2
20190421035205 6 65 0.0 0.0 0.00 0.00 0.00 82 1024.3
20190421035005 6 65 0.0 0.0 0.00 0.00 0.00 82 1024.3
20190421034505 6 65 0.0 0.0 0.00 0.00 0.00 82 1024.2
20190421034204 6 65 0.0 0.0 0.00 0.00 0.00 82 1024.2
20190421034005 6 65 0.0 0.0 0.00 0.00 0.00 82 1024.3
20190421033505 6 65 0.0 0.0 0.00 0.00 0.00 82 1024.3
20190421033205 6 65 0.0 0.0 0.00 0.00 0.00 82 1024.4
20190421033006 6 65 0.0 0.0 0.00 0.00 0.00 82 1024.4
20190421032204 6 65 0.0 0.0 0.00 0.00 0.00 81 1024.4
20190421032005 6 65 0.0 0.0 0.00 0.00 0.00 81 1024.5
20190421031505 6 65 0.0 0.0 0.00 0.00 0.00 81 1024.5
20190421031205 6 65 0.0 0.0 0.00 0.00 0.00 81 1024.6
20190421031004 6 65 0.0 0.0 0.00 0.00 0.00 81 1024.6
20190421030504 6 65 0.0 0.0 0.00 0.00 0.00 81 1024.7
20190421030205 7 65 0.0 0.0 0.00 0.00 0.00 81 1024.7
20190421030005 7 65 0.0 1.6 0.00 0.00 0.00 81 1024.7
20190421025504 7 65 0.0 0.0 0.00 0.00 0.00 80 1024.7
20190421025205 7 65 0.0 0.0 0.00 0.00 0.00 80 1024.7
20190421025006 7 65 0.0 0.0 0.00 0.00 0.00 80 1024.8
20190421024505 7 65 0.0 0.0 0.00 0.00 0.00 80 1024.8
20190421024205 7 65 0.0 0.0 0.00 0.00 0.00 80 1024.8
20190421024006 7 65 0.0 0.0 0.00 0.00 0.00 80 1024.8
20190421023504 7 65 0.0 0.0 0.00 0.00 0.00 80 1024.9
20190421023205 7 65 0.0 0.0 0.00 0.00 0.00 79 1024.9
20190421023005 7 65 0.0 0.0 0.00 0.00 0.00 79 1024.9
20190421022205 7 65 0.0 0.0 0.00 0.00 0.00 79 1025.1
20190421022005 7 65 0.0 0.0 0.00 0.00 0.00 79 1025.1
20190421021505 7 65 0.0 1.6 0.00 0.00 0.00 79 1025.2
20190421021205 7 65 0.0 0.0 0.00 0.00 0.00 78 1025.2
20190421021005 7 65 0.0 1.6 0.00 0.00 0.00 78 1025.2
20190421020505 7 65 0.0 1.6 0.00 0.00 0.00 78 1025.3
20190421020204 7 65 0.0 1.6 0.00 0.00 0.00 78 1025.3
20190421020011 7 65 0.0 0.0 0.00 0.00 0.00 78 1025.4
20190421015505 7 65 0.0 0.0 0.00 0.00 0.00 78 1025.4
20190421015205 8 65 0.0 0.0 0.00 0.00 0.00 76 1025.4
20190421015004 8 65 0.0 0.0 0.00 0.00 0.00 76 1025.4
20190421014505 8 65 0.0 0.0 0.00 0.00 0.00 76 1025.5
20190421014205 8 65 0.0 0.0 0.00 0.00 0.00 76 1025.5
20190421014005 8 65 0.0 0.0 0.00 0.00 0.00 75 1025.5
20190421013504 8 65 0.0 1.6 0.00 0.00 0.00 75 1025.6
20190421013204 8 65 0.0 1.6 0.00 0.00 0.00 75 1025.6
20190421013005 8 65 0.0 0.0 0.00 0.00 0.00 75 1025.7
20190421012206 8 65 0.0 0.0 0.00 0.00 0.00 75 1025.8
20190421012004 8 65 0.0 0.0 0.00 0.00 0.00 75 1025.9
20190421011504 8 65 0.0 0.0 0.00 0.00 0.00 74 1025.9
20190421011205 8 65 0.0 1.6 0.00 0.00 0.00 74 1026.0
20190421011005 8 65 0.0 1.6 0.00 0.00 0.00 73 1026.0
20190421010505 8 65 0.0 0.0 0.00 0.00 0.00 73 1026.0
20190421010204 8 65 0.0 0.0 0.00 0.00 0.00 72 1026.0
20190421010001 8 65 0.0 0.0 0.00 0.00 0.00 72 1026.0
20190421005502 9 65 0.0 0.0 0.00 0.00 0.00 72 1026.2
20190421005201 9 65 0.0 0.0 0.00 0.00 0.00 72 1026.2
20190421005002 9 65 0.0 0.0 0.00 0.00 0.00 71 1026.2
20190421004501 9 65 0.0 0.0 0.00 0.00 0.00 71 1026.2
20190421004202 9 65 0.0 0.0 0.00 0.00 0.00 71 1026.3
20190421004003 9 65 0.0 0.0 0.00 0.00 0.00 71 1026.3
20190421003502 9 65 0.0 0.0 0.00 0.00 0.00 69 1026.3
20190421003201 9 65 0.0 0.0 0.00 0.00 0.00 69 1026.3
20190421003002 10 65 0.0 0.0 0.00 0.00 0.00 68 1026.3
20190421002202 10 65 0.0 0.0 0.00 0.00 0.00 67 1026.4
20190421002002 10 65 0.0 0.0 0.00 0.00 0.00 67 1026.4
20190421001503 10 65 0.0 0.0 0.00 0.00 0.00 67 1026.5
20190421001202 10 65 0.0 0.0 0.00 0.00 0.00 67 1026.5
20190421001008 10 65 0.0 1.6 0.00 0.00 0.00 66 1026.5
20190421000511 10 65 0.0 0.0 0.00 0.00 0.00 66 1026.6
20190421000202 10 65 1.6 1.6 0.00 0.00 0.00 66 1026.7
20190421000002 10 65 1.6 1.6 0.00 0.00 0.00 65 1026.7
20190420235502 10 65 0.0 0.0 0.00 0.00 0.00 65 1026.8
20190420235202 10 65 0.0 0.0 0.00 0.00 0.00 64 1026.9
20190420235002 11 65 0.0 0.0 0.00 0.00 0.00 64 1026.9
20190420234501 11 65 0.0 0.0 0.00 0.00 0.00 64 1026.9
20190420234201 11 65 0.0 0.0 0.00 0.00 0.00 63 1027.0
20190420234002 11 65 0.0 0.0 0.00 0.00 0.00 63 1027.0
20190420233502 11 65 0.0 0.0 0.00 0.00 0.00 61 1027.1
20190420233201 11 65 0.0 1.6 0.00 0.00 0.00 61 1027.1
20190420233002 11 65 0.0 1.6 0.00 0.00 0.00 61 1027.1
20190420232202 11 65 0.0 1.6 0.00 0.00 0.00 60 1027.2
20190420232001 11 65 1.6 1.6 0.00 0.00 0.00 60 1027.2
20190420231503 11 65 0.0 1.6 0.00 0.00 0.00 59 1027.3
20190420231201 12 65 0.0 1.6 0.00 0.00 0.00 59 1027.3
20190420231002 12 65 1.6 3.2 0.00 0.00 0.00 59 1027.3
20190420230501 12 65 0.0 1.6 0.00 0.00 0.00 58 1027.4
20190420230201 12 65 1.6 1.6 0.00 0.00 0.00 58 1027.3
20190420230002 12 65 1.6 3.2 0.00 0.00 0.00 57 1027.4
20190420225502 12 65 1.6 3.2 0.00 0.00 0.00 57 1027.4
20190420225201 12 65 1.6 3.2 0.00 0.00 0.00 57 1027.4
20190420225001 12 65 1.6 3.2 0.00 0.00 0.00 56 1027.4
20190420224501 13 65 1.6 3.2 0.00 0.00 0.00 56 1027.4
20190420224202 13 65 1.6 1.6 0.00 0.00 0.00 55 1027.5
20190420224002 13 65 0.0 1.6 0.00 0.00 0.00 55 1027.5
20190420223502 13 65 0.0 1.6 0.00 0.00 0.00 54 1027.5
20190420223201 13 65 0.0 0.0 0.00 0.00 0.00 53 1027.5
20190420223002 13 65 0.0 1.6 0.00 0.00 0.00 53 1027.5
20190420222202 13 65 0.0 1.6 0.00 0.00 0.00 52 1027.5
20190420222001 14 65 0.0 1.6 0.00 0.00 0.00 51 1027.5
20190420221503 14 65 1.6 4.8 0.00 0.00 0.00 51 1027.6
20190420221201 14 65 1.6 3.2 0.00 0.00 0.00 50 1027.6
20190420221002 14 65 1.6 3.2 0.00 0.00 0.00 50 1027.6
20190420220502 14 65 3.2 4.8 0.00 0.00 0.00 49 1027.7
20190420220201 14 65 1.6 4.8 0.00 0.00 0.00 49 1027.7
20190420220002 14 65 3.2 4.8 0.00 0.00 0.00 49 1027.7
20190420215501 15 65 1.6 4.8 0.00 0.00 0.00 49 1027.8
20190420215201 15 65 1.6 4.8 0.00 0.00 0.00 48 1027.7
20190420215002 15 65 3.2 4.8 0.00 0.00 0.00 48 1027.7
20190420214501 15 81 3.2 4.8 0.00 0.00 0.00 48 1027.7
20190420214202 15 85 3.2 4.8 0.00 0.00 0.00 48 1027.7
20190420214002 15 85 1.6 8.0 0.00 0.00 0.00 48 1027.7
20190420213502 15 93 1.6 8.0 0.00 0.00 0.00 48 1027.7
20190420213201 15 94 0.0 1.6 0.00 0.00 0.00 47 1027.6
20190420213002 15 93 0.0 4.8 0.00 0.00 0.00 47 1027.7
20190420212202 15 104 0.0 0.0 0.00 0.00 0.00 47 1027.7
20190420212002 15 104 0.0 4.8 0.00 0.00 0.00 47 1027.7
20190420211502 15 97 1.6 4.8 0.00 0.00 0.00 47 1027.7
20190420211201 16 95 1.6 3.2 0.00 0.00 0.00 46 1027.7
20190420211002 16 95 3.2 8.0 0.00 0.00 0.00 45 1027.7
20190420210502 16 93 1.6 3.2 0.00 0.00 0.00 45 1027.7
20190420210201 16 93 1.6 3.2 0.00 0.00 0.00 44 1027.6
20190420210002 16 92 1.6 4.8 0.00 0.00 0.00 44 1027.7
20190420205501 16 88 3.2 4.8 0.00 0.00 0.00 44 1027.7
20190420205202 16 100 4.8 8.0 0.00 0.00 0.00 42 1027.7
20190420205001 16 113 3.2 8.0 0.00 0.00 0.00 42 1027.7
20190420204501 17 93 1.6 3.2 0.00 0.00 0.00 42 1027.7
20190420204202 17 93 1.6 3.2 0.00 0.00 0.00 42 1027.7
20190420204002 17 93 1.6 3.2 0.00 0.00 0.00 42 1027.8
20190420203501 17 93 1.6 4.8 0.00 0.00 0.00 41 1027.7
20190420203202 17 93 3.2 4.8 0.00 0.00 0.00 40 1027.7
20190420203002 17 86 4.8 9.7 0.00 0.00 0.00 40 1027.8
20190420202201 17 87 3.2 4.8 0.00 0.00 0.00 39 1027.8
20190420202002 17 90 3.2 4.8 0.00 0.00 0.00 39 1027.8